[Date Prev][Date Next][Thread Prev][Thread Next] - [Date Index][Thread Index][Author Index]
2 Line ISS Keps 4-27
- Subject: [sarex] 2 Line ISS Keps 4-27
- From: "Dave Larsen PhD" <doc@xxxxxxxxxxx>
- Date: Wed, 27 Apr 2005 05:50:19 -0700
ISS
1 25544U 98067A 05117.46479485 .00007251 00000-0 59835-4 0 3398
2 25544 051.6438 160.6049 0007738 057.0865 084.6422 15.71570805367709
----
Via the sarex mailing list at AMSAT.ORG courtesy of AMSAT-NA.
To unsubscribe, send "unsubscribe sarex" to Majordomo@amsat.org
AMSAT Home